Overview Statistics Trail Chart Weather Telemetry Raw packets
 

This is the latest recevied weather packets stored in our database for station/object WL7CLI. If no packets are shown the sender has not sent any weather packets the latest 10 day(s).

<< 79 80 81 82 83 84 85 >>
Time Temp. Humidity Pressure Rain* Wind** Luminosity Snow
1787929113 23.33° C 75% 1021.5 hPa 0 mm - - -
1787929001 23.33° C 75% 1020.6 hPa 0 mm - - -
1787928906 22.78° C 75% 1020.6 hPa 0 mm - - -
1787927800 22.22° C 78% 1020.8 hPa 0 mm - - -
1787927705 22.22° C 79% 1020.8 hPa 0 mm - - -
1787927283 21.67° C 79% 1021.8 hPa 0 mm - - -
1787926599 21.11° C 80% 1021.1 hPa 0 mm - - -
1787926596 21.11° C 80% 1021.1 hPa 0 mm - - -
1787926507 21.11° C 80% 1021.1 hPa 0 mm - - -
1787925513 20.56° C 82% 1022.1 hPa 0 mm - - -
1787925401 20° C 83% 1021.5 hPa 0 mm - - -
1787925305 20° C 83% 1021.4 hPa 0 mm - - -
1787924199 16.11° C 92% 1021.5 hPa 0 mm - - -
1787924147 16.11° C 92% 1021.5 hPa 0 mm - - -
1787924106 16.11° C 92% 1021.5 hPa 0 mm - - -
1787923683 16.11° C 92% 1021.9 hPa 0 mm - - -
1787922999 16.11° C 92% 1021.5 hPa 0 mm - - -
1787922906 16.11° C 92% 1021.4 hPa 0 mm - - -
1787921913 16.11° C 92% 1021.8 hPa 0 mm - - -
1787921801 16.11° C 92% 1021.4 hPa 0 mm - - -
1787921705 16.11° C 92% 1021.4 hPa 0 mm - - -
1787920601 16.11° C 92% 1021.1 hPa 0 mm - - -
1787920504 16.11° C 92% 1021.2 hPa 0 mm - - -
1787920084 16.11° C 92% 1021.4 hPa 0 mm - - -
1787919400 16.11° C 92% 1020.7 hPa 0 mm - - -

* Rain latest hour (hover to see other rain measurements)
** Current wind speed in m/s (hover to see current wind gust speed)